GW0861 Weather Reports


Display with metric or nautical units.
time (UTC)temp
F
wind
direction
speed
MPH
gust
MPH
rain 1hr
in
rain 24hr
in
rain mn
in
humidity
%
barometer
mb
20260831212252 73 214 3.0 9.0 0.00 0.01 0.01 87 1018.8
20260831211751 73 203 4.0 9.0 0.00 0.01 0.01 87 1018.8
20260831211253 73 172 4.0 6.0 0.00 0.01 0.01 87 1018.9
20260831210752 73 176 4.0 6.0 0.00 0.01 0.01 86 1018.9
20260831210252 74 178 4.0 7.0 0.01 0.01 0.01 87 1018.9
20260831210031 74 158 3.0 7.0 0.01 0.00 0.01 86 1018.9
20260831205253 74 183 3.0 6.0 0.01 0.00 0.01 86 1019.0
20260831204752 74 175 3.0 6.0 0.01 0.00 0.01 88 1019.0
20260831204530 73 192 3.0 6.0 0.01 0.00 0.01 88 1019.1
20260831204031 73 214 2.0 5.0 0.01 0.00 0.01 88 1019.0
20260831203531 73 235 2.0 5.0 0.01 0.00 0.01 89 1019.1
20260831202752 72 151 2.0 5.0 0.01 0.00 0.01 89 1019.2
20260831202253 72 166 2.0 3.0 0.01 0.00 0.01 90 1019.2
20260831201752 72 185 1.0 4.0 0.01 0.00 0.01 89 1019.3
20260831201252 72 185 2.0 5.0 0.01 0.00 0.01 88 1019.3
20260831201030 72 192 3.0 5.0 0.01 0.00 0.00 89 1019.3
20260831200252 72 182 1.0 5.0 0.00 0.00 0.00 90 1019.3
20260831200031 71 161 2.0 4.0 0.00 0.00 0.00 89 1019.3
20260831195253 71 171 3.0 5.0 0.00 0.00 0.00 90 1019.4
20260831194751 71 176 3.0 5.0 0.00 0.00 0.00 90 1019.3
20260831194252 71 158 3.0 5.0 0.00 0.00 0.00 92 1019.4
20260831193752 70 166 3.0 5.0 0.00 0.00 0.00 91 1019.4
20260831193252 70 165 3.0 5.0 0.00 0.00 0.00 91 1019.4
20260831192752 70 158 4.0 5.0 0.00 0.00 0.00 91 1019.5
20260831192252 69 185 4.0 6.0 0.00 0.00 0.00 91 1019.5
20260831191751 69 214 2.0 6.0 0.00 0.00 0.00 91 1019.6
20260831191254 69 190 3.0 9.0 0.00 0.00 0.00 91 1019.6
20260831190753 69 171 3.0 9.0 0.00 0.00 0.00 91 1019.7
20260831190252 69 192 5.0 10.0 0.00 0.00 0.00 91 1019.7
20260831185752 69 216 5.0 10.0 0.00 0.00 0.00 91 1019.7
20260831185251 69 178 3.0 10.0 0.00 0.00 0.00 91 1019.7
20260831184752 69 216 5.0 10.0 0.00 0.00 0.00 91 1019.7
20260831184252 69 247 4.0 12.0 0.00 0.00 0.00 92 1019.7
20260831183752 69 161 6.0 12.0 0.00 0.00 0.00 93 1019.6
20260831183253 69 171 7.0 12.0 0.00 0.00 0.00 94 1019.7
20260831182751 68 180 6.0 12.0 0.00 0.00 0.00 94 1019.7
20260831182252 68 169 7.0 12.0 0.00 0.00 0.00 94 1019.8
20260831181751 68 190 9.0 12.0 0.00 0.00 0.00 95 1019.8
20260831181252 67 190 6.0 11.0 0.00 0.00 0.00 95 1019.8
20260831181032 67 0 6.0 12.0 0.00 0.00 0.00 95 1019.9
20260831180252 67 188 6.0 12.0 0.00 0.00 0.00 95 1020.0
20260831180019 67 157 6.0 11.0 0.00 0.00 0.00 96 1020.1
20260831175252 67 175 5.0 11.0 0.00 0.00 0.00 96 1020.1
20260831174753 67 206 6.0 10.0 0.00 0.00 0.00 96 1020.1
20260831174323 66 179 5.0 9.0 0.00 0.00 0.00 96 1020.2
20260831174316 67 162 6.0 9.0 0.00 0.00 0.00 97 1020.1
20260831173258 66 178 5.0 10.0 0.00 0.00 0.00 96 1020.3
20260831172832 65 164 6.0 10.0 0.00 0.00 0.00 96 1020.5
20260831172823 65 169 6.0 10.0 0.00 0.00 0.00 96 1020.5
20260831171751 65 154 6.0 12.0 0.00 0.00 0.00 96 1020.5
20260831171255 65 175 6.0 12.0 0.00 0.00 0.00 96 1020.7
20260831170752 65 154 6.0 10.0 0.00 0.00 0.00 96 1020.7
20260831170521 65 151 5.0 11.0 0.00 0.00 0.00 96 1020.7
20260831165753 65 161 7.0 11.0 0.00 0.00 0.00 96 1020.7
20260831165251 65 169 6.0 9.0 0.00 0.00 0.00 96 1020.8
20260831164752 65 178 5.0 7.0 0.00 0.00 0.00 96 1020.8
20260831164253 65 165 5.0 6.0 0.00 0.00 0.00 96 1020.9
20260831163752 65 179 3.0 6.0 0.00 0.00 0.00 96 1021.1
20260831163252 65 212 1.0 9.0 0.00 0.00 0.00 96 1021.2
20260831162752 65 178 4.0 9.0 0.00 0.00 0.00 95 1021.1
20260831162251 65 178 5.0 7.0 0.00 0.00 0.00 95 1021.2
20260831161751 65 185 3.0 6.0 0.00 0.00 0.00 95 1021.3
20260831161250 65 241 4.0 6.0 0.00 0.00 0.00 95 1021.3
20260831160751 65 172 3.0 6.0 0.00 0.00 0.00 96 1021.5
20260831160251 65 307 3.0 6.0 0.00 0.00 0.00 96 1021.4
20260831155751 65 214 3.0 6.0 0.00 0.00 0.00 96 1021.3
20260831155251 65 180 3.0 6.0 0.00 0.00 0.00 96 1021.4
20260831154752 65 214 3.0 6.0 0.00 0.00 0.00 96 1021.3
20260831154251 65 166 4.0 6.0 0.00 0.00 0.00 96 1021.3
20260831153751 65 214 3.0 6.0 0.00 0.00 0.00 96 1021.3
20260831153251 65 200 3.0 9.0 0.00 0.00 0.00 96 1021.3
20260831152752 65 213 1.0 9.0 0.00 0.00 0.00 96 1021.2
20260831152252 65 186 4.0 6.0 0.00 0.00 0.00 96 1021.3
20260831152029 65 196 4.0 9.0 0.00 0.00 0.00 96 1021.2
20260831151251 65 179 5.0 9.0 0.00 0.00 0.00 96 1021.1
20260831150753 65 189 4.0 9.0 0.00 0.00 0.00 96 1021.0
20260831150250 65 168 5.0 9.0 0.00 0.00 0.00 96 1021.2
20260831145751 65 180 2.0 5.0 0.00 0.00 0.00 96 1021.2
20260831145251 65 179 4.0 5.0 0.00 0.00 0.00 96 1021.2
20260831145031 65 180 3.0 6.0 0.00 0.00 0.00 96 1021.1
20260831144251 65 185 3.0 7.0 0.00 0.00 0.00 96 1021.1
20260831143752 65 164 5.0 7.0 0.00 0.00 0.00 96 1021.1
20260831143252 65 169 5.0 7.0 0.00 0.00 0.00 96 1021.1
20260831142752 65 178 4.0 7.0 0.00 0.00 0.00 96 1021.1
20260831142527 65 164 5.0 7.0 0.00 0.00 0.00 96 1021.1
20260831142029 65 165 3.0 6.0 0.00 0.00 0.00 96 1021.1
20260831141252 65 171 3.0 6.0 0.00 0.00 0.00 96 1021.0
20260831140752 65 180 3.0 6.0 0.00 0.00 0.00 97 1020.9
20260831140251 65 152 5.0 7.0 0.00 0.00 0.00 96 1020.8
20260831140029 65 145 6.0 7.0 0.00 0.00 0.00 97 1020.8
20260831135251 64 138 5.0 6.0 0.00 0.00 0.00 97 1020.8
20260831134750 64 90 4.0 5.0 0.00 0.00 0.00 97 1020.8
20260831134253 65 159 4.0 6.0 0.00 0.00 0.00 97 1020.8
20260831133751 64 145 3.0 6.0 0.00 0.00 0.00 97 1020.9
20260831133251 64 175 4.0 5.0 0.00 0.00 0.00 97 1021.0
20260831132752 64 161 3.0 5.0 0.00 0.00 0.00 97 1020.9
20260831132252 64 121 3.0 3.0 0.00 0.00 0.00 97 1021.0
20260831131751 64 151 0.0 4.0 0.00 0.00 0.00 97 1021.0
20260831131252 64 213 0.0 5.0 0.00 0.00 0.00 97 1021.2
20260831131020 64 164 3.0 6.0 0.00 0.00 0.00 97 1021.2
20260831125752 64 131 3.0 5.0 0.00 0.00 0.00 96 1021.2
20260831125530 64 159 3.0 5.0 0.00 0.00 0.00 96 1021.3
20260831125031 64 154 2.0 4.0 0.00 0.00 0.00 96 1021.4
20260831124251 64 165 1.0 3.0 0.00 0.00 0.00 96 1021.4
20260831123751 64 172 2.0 3.0 0.00 0.00 0.00 96 1021.3
20260831123251 64 172 2.0 3.0 0.00 0.00 0.00 96 1021.4
20260831122751 63 165 2.0 4.0 0.00 0.00 0.00 96 1021.3
20260831122251 64 133 3.0 4.0 0.00 0.00 0.00 96 1021.3
20260831121751 64 128 3.0 4.0 0.00 0.00 0.00 96 1021.3
20260831121251 63 127 3.0 4.0 0.00 0.00 0.00 96 1021.3
20260831120751 63 54 3.0 4.0 0.00 0.00 0.00 96 1021.4
20260831120251 63 54 2.0 3.0 0.00 0.00 0.00 96 1021.5
20260831115751 63 114 1.0 3.0 0.00 0.00 0.00 96 1021.4
20260831115251 63 89 1.0 3.0 0.00 0.00 0.00 96 1021.4
20260831114751 63 87 2.0 3.0 0.00 0.00 0.00 96 1021.3
20260831114253 63 299 0.0 0.0 0.00 0.00 0.00 96 1021.3
20260831113753 63 299 0.0 0.0 0.00 0.00 0.00 96 1021.5
20260831113251 63 299 0.0 0.0 0.00 0.00 0.00 96 1021.4
20260831112751 63 299 0.0 0.0 0.00 0.00 0.00 96 1021.3
20260831112251 63 299 0.0 0.0 0.00 0.00 0.00 96 1021.3
20260831112030 63 299 0.0 0.0 0.00 0.00 0.00 96 1021.1
20260831111252 63 299 0.0 0.0 0.00 0.00 0.00 96 1021.3
20260831110751 63 299 0.0 0.0 0.00 0.00 0.00 96 1021.2
20260831110251 63 299 0.0 0.0 0.00 0.00 0.00 96 1021.3
20260831105752 63 299 0.0 0.0 0.00 0.00 0.00 96 1021.2
20260831105528 63 299 0.0 0.0 0.00 0.00 0.00 96 1021.2
20260831104751 63 299 0.0 0.0 0.00 0.00 0.00 96 1021.1
20260831104251 63 299 0.0 0.0 0.00 0.00 0.00 96 1021.1
20260831103751 63 299 0.0 0.0 0.00 0.00 0.00 95 1021.1
20260831103251 63 299 0.0 0.0 0.00 0.00 0.00 95 1021.0
20260831102751 63 299 0.0 0.0 0.00 0.00 0.00 95 1021.0
20260831102251 63 299 0.0 0.0 0.00 0.00 0.00 95 1020.9
20260831101752 63 299 0.0 0.0 0.00 0.00 0.00 95 1020.8
20260831101252 63 299 0.0 0.0 0.00 0.00 0.00 95 1020.8
20260831100751 63 299 0.0 0.0 0.00 0.00 0.00 95 1020.9
20260831100252 63 299 0.0 0.0 0.00 0.00 0.00 95 1020.9
20260831095751 63 299 0.0 0.0 0.00 0.00 0.00 95 1020.9
20260831095251 63 299 0.0 0.0 0.00 0.00 0.00 95 1021.0
20260831094752 63 299 0.0 0.0 0.00 0.00 0.00 95 1021.0
20260831094251 63 299 0.0 0.0 0.00 0.00 0.00 95 1020.9
20260831093751 63 299 0.0 0.0 0.00 0.00 0.00 95 1020.9
20260831093251 63 299 0.0 0.0 0.00 0.00 0.00 95 1020.8
20260831092752 63 299 0.0 0.0 0.00 0.00 0.00 95 1020.8
20260831092251 63 299 0.0 0.0 0.00 0.00 0.00 95 1020.9
20260831091751 63 299 0.0 0.0 0.00 0.00 0.00 95 1021.0
20260831091529 63 299 0.0 0.0 0.00 0.00 0.00 95 1020.9
20260831090750 63 299 0.0 0.0 0.00 0.00 0.00 95 1020.8
20260831090250 63 299 0.0 0.0 0.00 0.00 0.00 95 1020.8
20260831085751 63 299 0.0 0.0 0.00 0.00 0.00 95 1020.9
20260831085251 63 299 0.0 0.0 0.00 0.00 0.00 95 1021.0
20260831085025 63 299 0.0 0.0 0.00 0.00 0.00 95 1021.1
20260831084253 63 299 0.0 0.0 0.00 0.00 0.00 95 1021.1
20260831083752 63 299 0.0 0.0 0.00 0.00 0.00 95 1021.0
20260831083251 63 299 0.0 0.0 0.00 0.00 0.00 95 1021.0
20260831082751 63 299 0.0 0.0 0.00 0.00 0.00 95 1021.1
20260831082251 63 299 0.0 0.0 0.00 0.00 0.00 95 1021.1
20260831081752 63 299 0.0 0.0 0.00 0.00 0.00 95 1021.1
20260831081252 63 299 0.0 0.0 0.00 0.00 0.00 95 1020.9
20260831080751 63 299 0.0 0.0 0.00 0.00 0.00 95 1021.0
20260831080251 63 299 0.0 0.0 0.00 0.00 0.00 95 1021.0
20260831075751 63 299 0.0 0.0 0.00 0.00 0.00 95 1021.0
20260831075527 63 299 0.0 0.0 0.00 0.00 0.00 95 1020.9
20260831074751 63 299 0.0 0.0 0.00 0.00 0.00 95 1021.0
20260831074251 63 299 0.0 0.0 0.00 0.00 0.00 95 1021.0
20260831073751 63 299 0.0 0.0 0.00 0.00 0.00 95 1021.1
20260831073251 63 299 0.0 0.0 0.00 0.00 0.00 95 1021.1
20260831072806 63 299 0.0 0.0 0.00 0.00 0.00 95 1021.0
20260831072758 63 299 0.0 0.0 0.00 0.00 0.00 95 1021.0
20260831071751 63 299 0.0 0.0 0.00 0.00 0.00 95 1021.0
20260831071527 63 299 0.0 0.0 0.00 0.00 0.00 94 1021.1
20260831070751 63 299 0.0 0.0 0.00 0.00 0.00 94 1021.1
20260831070251 63 299 0.0 0.0 0.00 0.00 0.00 94 1021.0
20260831065751 63 299 0.0 0.0 0.00 0.00 0.00 94 1021.0
20260831065252 63 299 0.0 0.0 0.00 0.00 0.00 94 1021.0
20260831064750 63 299 0.0 0.0 0.00 0.00 0.00 94 1021.0
20260831064250 63 299 0.0 0.0 0.00 0.00 0.00 94 1020.9
20260831063751 63 299 0.0 0.0 0.00 0.00 0.00 94 1020.9
20260831063526 63 299 0.0 0.0 0.00 0.00 0.00 94 1020.8
20260831062751 63 299 0.0 0.0 0.00 0.00 0.00 94 1020.9
20260831062252 63 299 0.0 1.0 0.00 0.00 0.00 94 1021.0
20260831061751 63 299 0.0 2.0 0.00 0.00 0.00 94 1021.2
20260831061530 63 299 1.0 2.0 0.00 0.00 0.00 94 1021.2
20260831060750 63 299 0.0 2.0 0.00 0.00 0.00 94 1021.2
20260831060251 63 299 1.0 2.0 0.00 0.00 0.00 94 1021.3
20260831055751 64 299 1.0 2.0 0.00 0.00 0.00 94 1021.3
20260831055528 64 299 1.0 3.0 0.00 0.00 0.00 94 1021.4
20260831054750 64 299 1.0 4.0 0.00 0.00 0.00 94 1021.4
20260831054251 64 299 0.0 4.0 0.00 0.00 0.00 94 1021.3
20260831053751 64 276 2.0 4.0 0.00 0.00 0.00 94 1021.5
20260831053251 64 306 1.0 4.0 0.00 0.00 0.00 93 1021.5
20260831052750 64 306 2.0 5.0 0.00 0.00 0.00 93 1021.5
20260831052528 64 275 2.0 6.0 0.00 0.00 0.00 93 1021.6
20260831051750 64 262 3.0 6.0 0.00 0.00 0.00 93 1021.5
20260831051251 64 305 4.0 6.0 0.00 0.00 0.00 93 1021.6
20260831050749 64 283 3.0 6.0 0.00 0.00 0.00 93 1021.7
20260831050251 64 274 2.0 4.0 0.00 0.00 0.00 93 1021.7
20260831045750 64 255 2.0 3.0 0.00 0.00 0.00 93 1021.6
20260831045529 64 245 1.0 3.0 0.00 0.00 0.00 93 1021.6
20260831044751 64 245 0.0 4.0 0.00 0.00 0.00 93 1021.5
20260831044250 64 231 2.0 4.0 0.00 0.00 0.00 93 1021.7
20260831044030 64 269 1.0 2.0 0.00 0.00 0.00 93 1021.6
20260831043251 64 269 1.0 2.0 0.00 0.00 0.00 93 1021.7
20260831042751 64 269 1.0 2.0 0.00 0.00 0.00 93 1021.6
20260831042251 64 269 0.0 4.0 0.00 0.00 0.00 93 1021.5
20260831042027 64 269 2.0 4.0 0.00 0.00 0.00 93 1021.6
20260831041250 64 264 1.0 5.0 0.00 0.00 0.00 93 1021.6
20260831040752 64 296 2.0 5.0 0.00 0.00 0.00 93 1021.6
20260831040252 64 283 2.0 3.0 0.00 0.00 0.00 93 1021.7
20260831035749 64 124 0.0 1.0 0.00 0.00 0.00 93 1021.5
20260831035307 64 124 1.0 3.0 0.00 0.00 0.00 93 1021.5
20260831035300 64 124 0.0 2.0 0.00 0.00 0.00 93 1021.6
20260831034250 64 124 2.0 3.0 0.00 0.00 0.00 93 1021.6
20260831033750 64 124 2.0 4.0 0.00 0.00 0.00 92 1021.5
20260831033250 64 124 3.0 4.0 0.00 0.00 0.00 92 1021.5
20260831032750 64 124 3.0 4.0 0.00 0.00 0.00 92 1021.5
20260831032250 64 124 2.0 3.0 0.00 0.00 0.00 92 1021.7
20260831031750 64 124 2.0 3.0 0.00 0.00 0.00 92 1021.5
20260831031250 64 124 2.0 3.0 0.00 0.00 0.00 92 1021.6
20260831030750 64 164 0.0 0.0 0.00 0.00 0.00 92 1021.7
20260831030250 64 164 0.0 0.0 0.00 0.00 0.00 91 1021.8
20260831025752 64 164 0.0 0.0 0.00 0.00 0.00 91 1021.7
20260831025251 64 164 0.0 0.0 0.00 0.00 0.00 91 1021.6
20260831024750 64 164 0.0 1.0 0.00 0.00 0.00 91 1021.7
20260831024308 64 164 0.0 3.0 0.00 0.00 0.00 91 1021.6
20260831024301 64 164 0.0 1.0 0.00 0.00 0.00 91 1021.6
20260831023250 64 164 2.0 3.0 0.00 0.00 0.00 91 1021.6
20260831022750 64 164 0.0 3.0 0.00 0.00 0.00 91 1021.7
20260831022251 64 164 1.0 4.0 0.00 0.00 0.00 91 1021.7
20260831021751 64 82 1.0 4.0 0.00 0.00 0.00 91 1021.6
20260831021251 64 76 3.0 9.0 0.00 0.00 0.00 90 1021.6
20260831020750 65 18 6.0 9.0 0.00 0.00 0.00 90 1021.5
20260831020305 65 72 1.0 3.0 0.00 0.00 0.00 89 1021.6
20260831020257 65 55 2.0 5.0 0.00 0.00 0.00 90 1021.7
20260831015530 65 55 0.0 0.0 0.00 0.00 0.00 89 1021.9
20260831015026 65 55 0.0 0.0 0.00 0.00 0.00 88 1021.9
20260831014529 65 55 0.0 1.0 0.00 0.00 0.00 87 1021.9
20260831013750 65 55 0.0 1.0 0.00 0.00 0.00 87 1021.9
20260831013250 65 31 0.0 1.0 0.00 0.00 0.00 87 1021.8
20260831012750 65 31 0.0 4.0 0.00 0.00 0.00 87 1021.7
20260831012250 66 31 0.0 4.0 0.00 0.00 0.00 87 1021.7
20260831012029 66 58 0.0 4.0 0.00 0.00 0.00 87 1021.7
20260831011250 66 79 2.0 5.0 0.00 0.00 0.00 87 1021.4
20260831010808 66 49 2.0 5.0 0.00 0.00 0.00 86 1021.4
20260831010802 66 87 1.0 5.0 0.00 0.00 0.00 86 1021.5
20260831005802 66 55 1.0 9.0 0.00 0.00 0.00 85 1021.4
20260831004750 67 52 1.0 5.0 0.00 0.00 0.00 84 1021.4
20260831004252 67 65 1.0 4.0 0.00 0.00 0.00 84 1021.4
20260831003751 67 10 2.0 4.0 0.00 0.00 0.00 84 1021.3
20260831003250 67 21 1.0 5.0 0.00 0.00 0.00 84 1021.1
20260831002750 68 39 2.0 5.0 0.00 0.00 0.00 83 1021.2
20260831002518 68 49 1.0 5.0 0.00 0.00 0.00 83 1021.1
20260831002506 68 330 1.0 5.0 0.00 0.00 0.00 83 1021.2
20260831001250 68 1 0.0 2.0 0.00 0.00 0.00 83 1021.1
20260831001029 69 1 0.0 2.0 0.00 0.00 0.00 83 1021.0
20260831000251 69 279 0.0 0.0 0.00 0.00 0.00 83 1020.9
20260830235751 69 279 0.0 0.0 0.00 0.00 0.00 82 1020.8
20260830235250 69 279 0.0 0.0 0.00 0.00 0.00 82 1020.6
20260830234750 69 279 0.0 0.0 0.00 0.00 0.00 82 1020.6
20260830234250 69 279 0.0 0.0 0.00 0.00 0.00 82 1020.5
20260830233752 69 279 0.0 0.0 0.00 0.00 0.00 81 1020.5
20260830233250 69 279 0.0 0.0 0.00 0.00 0.00 81 1020.6
20260830232750 69 279 0.0 0.0 0.00 0.00 0.00 81 1020.6
20260830232528 69 279 0.0 0.0 0.00 0.00 0.00 81 1020.5
20260830231750 70 279 0.0 0.0 0.00 0.00 0.00 81 1020.6
20260830231250 70 279 0.0 0.0 0.00 0.00 0.00 82 1020.6
20260830231028 70 279 0.0 0.0 0.00 0.00 0.00 81 1020.7
20260830230250 70 279 0.0 0.0 0.00 0.00 0.00 81 1020.6
20260830225750 70 279 0.0 0.0 0.00 0.00 0.00 81 1020.5
20260830225250 70 279 0.0 0.0 0.00 0.00 0.00 81 1020.5
20260830224750 70 279 0.0 0.0 0.00 0.00 0.00 81 1020.5
20260830224250 69 279 0.0 0.0 0.00 0.00 0.00 81 1020.6
20260830223750 69 279 0.0 0.0 0.00 0.00 0.00 81 1020.7
20260830223249 69 279 0.0 0.0 0.00 0.00 0.00 81 1020.7
20260830222752 69 279 0.0 0.0 0.00 0.00 0.00 81 1020.7
20260830222527 69 279 0.0 2.0 0.00 0.00 0.00 81 1020.7
20260830221750 69 279 0.0 2.0 0.00 0.00 0.00 81 1020.6
20260830221250 69 279 0.0 2.0 0.00 0.00 0.00 81 1020.7
20260830220750 69 279 0.0 2.0 0.00 0.00 0.00 81 1020.5
20260830220250 69 279 0.0 3.0 0.00 0.00 0.00 81 1020.5
20260830215750 69 279 1.0 3.0 0.00 0.00 0.00 81 1020.5
20260830215251 69 302 0.0 3.0 0.00 0.00 0.00 81 1020.8
20260830214751 69 310 0.0 3.0 0.00 0.00 0.00 81 1020.7
20260830214250 69 310 0.0 3.0 0.00 0.00 0.00 81 1020.7
20260830213750 69 289 0.0 4.0 0.00 0.00 0.00 81 1020.5
20260830213250 69 289 0.0 4.0 0.00 0.00 0.00 81 1020.3
20260830212750 69 293 1.0 4.0 0.00 0.00 0.00 81 1020.6